NC4M Weather Reports


time (UTC)temp
F
wind
direction
speed
knots
gust
knots
rain 1hr
in
rain 24hr
in
rain mn
in
humidity
%
barometer
mb
20260906155230 86 58 0.0 0.9 0.00 0.00 0.00 71 1017.3
20260906154725 86 54 0.0 1.7 0.00 0.00 0.00 72 1017.3
20260906154221 86 43 1.7 1.7 0.00 0.00 0.00 72 1017.5
20260906153719 86 37 0.9 1.7 0.00 0.00 0.00 72 1017.1
20260906153214 86 254 0.9 1.7 0.00 0.00 0.00 72 1017.3
20260906152709 85 51 0.0 1.7 0.00 0.00 0.00 72 1017.3
20260906152209 85 205 0.0 1.7 0.00 0.00 0.00 73 1017.0
20260906151703 85 59 0.9 1.7 0.00 0.00 0.00 73 1017.0
20260906151159 84 115 0.0 0.9 0.00 0.00 0.00 75 1017.1
20260906150654 85 46 0.9 1.7 0.00 0.00 0.00 74 1017.0
20260906150149 85 59 0.9 0.9 0.00 0.00 0.00 73 1016.9
20260906145649 84 146 0.0 0.9 0.00 0.00 0.00 73 1016.8
20260906145149 84 59 0.9 0.9 0.00 0.00 0.00 73 1016.8
20260906144648 84 116 0.9 1.7 0.00 0.00 0.00 74 1016.8
20260906144143 83 119 0.0 1.7 0.00 0.00 0.00 75 1016.7
20260906143643 83 162 0.0 1.7 0.00 0.00 0.00 76 1016.7
20260906143140 83 117 0.0 0.9 0.00 0.00 0.00 75 1016.8
20260906142639 83 84 0.0 0.9 0.00 0.00 0.00 76 1016.8
20260906142135 82 84 0.0 0.9 0.00 0.00 0.00 76 1016.6
20260906141633 82 124 0.0 0.9 0.00 0.00 0.00 76 1016.6
20260906141129 82 202 0.9 0.9 0.00 0.00 0.00 76 1016.7
20260906140628 82 122 0.0 0.9 0.00 0.00 0.00 76 1016.7
20260906140123 81 112 0.9 0.9 0.00 0.00 0.00 78 1016.6
20260906135620 80 239 0.0 0.9 0.00 0.00 0.00 79 1016.5
20260906135116 80 79 0.9 1.7 0.00 0.00 0.00 80 1016.6
20260906134611 80 106 0.0 1.7 0.00 0.00 0.00 81 1016.7
20260906134107 80 53 0.0 0.9 0.00 0.00 0.00 81 1016.7
20260906133602 79 113 0.0 0.9 0.00 0.00 0.00 82 1016.6
20260906133057 79 207 0.0 0.9 0.00 0.00 0.00 84 1016.5
20260906132552 78 36 0.0 0.9 0.00 0.00 0.00 85 1016.7
20260906132048 78 45 0.9 0.9 0.00 0.00 0.00 85 1016.7
20260906131543 78 113 0.0 0.9 0.00 0.00 0.00 86 1016.3
20260906131038 78 36 0.9 1.7 0.00 0.00 0.00 87 1016.7
20260906130538 77 102 0.0 0.9 0.00 0.00 0.00 88 1016.3
20260906130033 77 90 0.0 0.9 0.00 0.00 0.00 88 1016.3
20260906125530 77 43 0.0 0.9 0.00 0.00 0.00 88 1016.3
20260906125030 77 43 0.0 0.0 0.00 0.00 0.00 89 1016.4
20260906124526 76 44 0.0 0.0 0.00 0.00 0.00 89 1016.3
20260906124021 76 43 0.0 1.7 0.00 0.00 0.00 89 1016.0
20260906123520 76 188 0.0 1.7 0.00 0.00 0.00 90 1016.2
20260906123016 76 223 0.0 0.0 0.00 0.00 0.00 90 1016.0
20260906122515 75 223 0.0 0.0 0.00 0.00 0.00 90 1015.9
20260906122011 75 223 0.0 0.0 0.00 0.00 0.00 90 1016.1
20260906121507 75 223 0.0 0.0 0.00 0.00 0.00 91 1015.8
20260906121003 75 223 0.0 0.0 0.00 0.00 0.00 91 1015.9
20260906120458 74 223 0.0 0.0 0.00 0.00 0.00 91 1015.9
20260906115954 74 223 0.0 0.0 0.00 0.00 0.00 92 1015.9
20260906115450 74 223 0.0 0.0 0.00 0.00 0.00 93 1016.0
20260906114950 73 223 0.0 0.0 0.00 0.00 0.00 93 1015.8
20260906114444 73 223 0.0 0.0 0.00 0.00 0.00 94 1016.1
20260906113941 73 223 0.0 0.0 0.00 0.00 0.00 93 1015.8
20260906113439 73 223 0.0 0.0 0.00 0.00 0.00 93 1015.8
20260906112935 73 223 0.0 0.0 0.00 0.00 0.00 93 1015.6
20260906112430 73 223 0.0 0.0 0.00 0.00 0.00 93 1015.8
20260906111926 73 223 0.0 0.0 0.00 0.00 0.00 93 1015.8
20260906111425 73 223 0.0 0.0 0.00 0.00 0.00 93 1015.6
20260906110920 73 223 0.0 0.0 0.00 0.00 0.00 93 1015.5
20260906110415 73 223 0.0 0.0 0.00 0.00 0.00 92 1015.5
20260906105914 73 223 0.0 0.0 0.00 0.00 0.00 92 1015.6
20260906105410 73 223 0.0 0.0 0.00 0.00 0.00 92 1015.4
20260906104906 73 223 0.0 0.0 0.00 0.00 0.00 92 1015.4
20260906104404 73 223 0.0 0.0 0.00 0.00 0.00 92 1015.5
20260906103903 73 223 0.0 0.0 0.00 0.00 0.00 92 1015.3
20260906103402 73 223 0.0 0.0 0.00 0.00 0.00 93 1015.6
20260906102858 73 223 0.0 0.0 0.00 0.00 0.00 93 1015.5
20260906102357 73 223 0.0 0.0 0.00 0.00 0.00 93 1015.4
20260906101852 73 223 0.0 0.0 0.00 0.00 0.00 94 1015.3
20260906101347 73 223 0.0 0.0 0.00 0.00 0.00 93 1015.3
20260906100843 73 223 0.0 0.0 0.00 0.00 0.00 93 1015.0
20260906100341 73 223 0.0 0.0 0.00 0.00 0.00 93 1015.2
20260906095837 73 223 0.0 0.0 0.00 0.00 0.00 93 1015.0
20260906095332 73 223 0.0 0.0 0.00 0.00 0.00 93 1015.1
20260906094832 73 223 0.0 0.0 0.00 0.00 0.00 93 1015.1
20260906094327 73 223 0.0 0.0 0.00 0.00 0.00 93 1015.1
20260906093823 73 223 0.0 0.0 0.00 0.00 0.00 93 1015.1
20260906093319 73 223 0.0 0.0 0.00 0.00 0.00 93 1015.0
20260906092814 73 223 0.0 0.0 0.00 0.00 0.00 93 1014.8
20260906092313 73 223 0.0 0.0 0.00 0.00 0.00 93 1014.9
20260906091809 73 223 0.0 0.0 0.00 0.00 0.00 93 1014.8
20260906091305 73 223 0.0 0.0 0.00 0.00 0.00 93 1014.7
20260906090801 73 223 0.0 0.0 0.00 0.00 0.00 93 1014.7
20260906090300 73 223 0.0 0.0 0.00 0.00 0.00 93 1014.5
20260906085801 73 223 0.0 0.0 0.00 0.00 0.00 92 1014.5
20260906085259 73 223 0.0 0.0 0.00 0.00 0.00 92 1014.7
20260906084754 73 223 0.0 0.0 0.00 0.00 0.00 92 1014.5
20260906084254 73 223 0.0 0.0 0.00 0.00 0.00 92 1014.7
20260906083749 73 223 0.0 0.0 0.00 0.00 0.00 92 1014.7
20260906083245 73 223 0.0 0.0 0.00 0.00 0.00 92 1014.8
20260906082739 74 223 0.0 0.0 0.00 0.00 0.00 91 1014.7
20260906082234 74 223 0.0 0.0 0.00 0.00 0.00 91 1014.6
20260906081730 74 223 0.0 0.0 0.00 0.00 0.00 91 1014.7
20260906081225 74 223 0.0 0.0 0.00 0.00 0.00 90 1014.6
20260906080722 74 223 0.0 0.0 0.00 0.00 0.00 90 1014.5
20260906080218 74 223 0.0 0.0 0.00 0.00 0.00 90 1014.9
20260906075717 74 223 0.0 0.0 0.00 0.00 0.00 90 1014.5
20260906075212 74 223 0.0 0.0 0.00 0.00 0.00 90 1014.6
20260906074707 74 223 0.0 0.0 0.00 0.00 0.00 90 1014.5
20260906074207 74 223 0.0 0.0 0.00 0.00 0.00 90 1014.5
20260906073702 74 223 0.0 0.0 0.00 0.00 0.00 90 1014.5
20260906073157 74 223 0.0 0.0 0.00 0.00 0.00 89 1014.8
20260906072652 74 223 0.0 0.0 0.00 0.00 0.00 89 1014.8
20260906072148 74 223 0.0 0.0 0.00 0.00 0.00 89 1014.7
20260906071644 75 223 0.0 0.0 0.00 0.00 0.00 89 1014.7
20260906071143 74 223 0.0 0.0 0.00 0.00 0.00 88 1014.8
20260906070640 75 223 0.0 0.0 0.00 0.00 0.00 88 1014.9
20260906070136 75 223 0.0 0.0 0.00 0.00 0.00 89 1014.7
20260906065635 74 223 0.0 0.0 0.00 0.00 0.00 89 1014.8
20260906065131 75 223 0.0 0.0 0.00 0.00 0.00 89 1015.0
20260906064626 75 223 0.0 0.0 0.00 0.00 0.00 89 1015.0
20260906064121 75 223 0.0 0.0 0.00 0.00 0.00 89 1015.0
20260906063616 75 223 0.0 0.0 0.00 0.00 0.00 88 1015.0
20260906063112 75 223 0.0 0.0 0.00 0.00 0.00 88 1014.9
20260906062608 75 223 0.0 0.0 0.00 0.00 0.00 88 1015.1
20260906062106 75 223 0.0 0.0 0.00 0.00 0.00 87 1014.9
20260906061603 75 223 0.0 0.0 0.00 0.00 0.00 87 1014.9
20260906061102 75 223 0.0 0.0 0.00 0.00 0.00 88 1015.0
20260906060559 75 223 0.0 0.0 0.00 0.00 0.00 87 1015.0
20260906060056 75 223 0.0 0.0 0.00 0.00 0.00 87 1014.9
20260906055551 76 223 0.0 0.0 0.00 0.00 0.00 87 1015.1
20260906055046 76 223 0.0 0.0 0.00 0.00 0.00 87 1015.0
20260906054541 76 223 0.0 0.0 0.00 0.00 0.00 86 1014.8
20260906054036 76 223 0.0 0.0 0.00 0.00 0.00 86 1015.0
20260906053533 76 223 0.0 0.0 0.00 0.00 0.00 85 1014.8
20260906053028 76 223 0.0 0.0 0.00 0.00 0.00 85 1015.2
20260906052523 76 223 0.0 0.0 0.00 0.00 0.00 84 1015.0
20260906052021 76 223 0.0 0.0 0.00 0.00 0.00 84 1014.9
20260906051516 77 223 0.0 0.0 0.00 0.00 0.00 84 1014.8
20260906051011 77 223 0.0 0.0 0.00 0.00 0.00 83 1014.8
20260906050511 77 223 0.0 0.0 0.00 0.00 0.00 83 1014.9
20260906050006 77 223 0.0 0.0 0.00 0.00 0.00 83 1015.1
20260906045504 77 223 0.0 0.0 0.00 0.00 0.00 81 1014.9
20260906045000 77 223 0.0 0.0 0.00 0.00 0.00 83 1014.9
20260906044455 77 223 0.0 0.0 0.00 0.00 0.00 82 1015.1
20260906043951 77 223 0.0 0.0 0.00 0.00 0.00 83 1015.0
20260906043447 77 223 0.0 0.0 0.00 0.00 0.00 83 1015.1
20260906042943 77 223 0.0 0.0 0.00 0.00 0.00 82 1015.0
20260906042442 78 223 0.0 0.0 0.00 0.00 0.00 81 1014.9
20260906041936 78 223 0.0 0.0 0.00 0.00 0.00 81 1015.0
20260906041433 78 223 0.0 0.0 0.00 0.00 0.00 80 1015.1
20260906040932 78 223 0.0 0.0 0.00 0.00 0.00 80 1014.8
20260906040427 78 223 0.0 0.0 0.00 0.00 0.00 80 1014.8
20260906035923 78 223 0.0 0.0 0.00 0.00 0.00 81 1014.7
20260906035418 78 223 0.0 0.0 0.00 0.00 0.00 80 1014.8
20260906034913 78 223 0.0 0.0 0.00 0.00 0.00 80 1014.8
20260906034413 78 223 0.0 0.0 0.00 0.00 0.00 80 1014.8
20260906033909 78 223 0.0 0.0 0.00 0.00 0.00 79 1014.9
20260906033409 78 223 0.0 0.0 0.00 0.00 0.00 80 1014.8
20260906032905 78 223 0.0 0.0 0.00 0.00 0.00 81 1014.7
20260906032401 79 223 0.0 0.0 0.00 0.00 0.00 81 1014.9
20260906031901 79 223 0.0 0.0 0.00 0.00 0.00 77 1014.9
20260906031356 79 223 0.0 0.0 0.00 0.00 0.00 78 1014.6
20260906030851 79 223 0.0 0.0 0.00 0.00 0.00 80 1014.8
20260906030347 79 223 0.0 0.0 0.00 0.00 0.00 78 1014.8
20260906025847 80 223 0.0 0.0 0.00 0.00 0.00 78 1014.6
20260906025341 80 223 0.0 0.0 0.00 0.00 0.00 78 1014.6
20260906024840 80 223 0.0 0.0 0.00 0.00 0.00 78 1014.2
20260906024339 81 223 0.0 0.0 0.00 0.00 0.00 75 1014.3
20260906023835 81 223 0.0 0.0 0.00 0.00 0.00 74 1014.6
20260906023330 81 223 0.0 0.0 0.00 0.00 0.00 74 1014.5
20260906022826 81 223 0.0 0.0 0.00 0.00 0.00 73 1014.3
20260906022321 81 223 0.0 0.0 0.00 0.00 0.00 71 1014.2
20260906021816 81 223 0.0 0.0 0.00 0.00 0.00 71 1014.3
20260906021316 81 223 0.0 0.0 0.00 0.00 0.00 73 1013.9
20260906020816 81 223 0.0 0.0 0.00 0.00 0.00 71 1013.8
20260906020315 81 223 0.0 0.0 0.00 0.00 0.00 73 1013.7
20260906015309 82 223 0.0 0.0 0.00 0.00 0.00 74 1013.6
20260906014809 82 223 0.0 0.0 0.00 0.00 0.00 74 1013.6
20260906014304 82 223 0.0 0.0 0.00 0.00 0.00 72 1013.7
20260906013801 82 223 0.0 0.0 0.00 0.00 0.00 71 1013.4
20260906013301 82 223 0.0 0.0 0.00 0.00 0.00 71 1013.3
20260906012756 82 223 0.0 0.0 0.00 0.00 0.00 72 1013.3
20260906012251 83 223 0.0 0.0 0.00 0.00 0.00 72 1013.3
20260906011746 83 223 0.0 0.0 0.00 0.00 0.00 68 1013.1
20260906011246 83 223 0.0 0.0 0.00 0.00 0.00 70 1013.1
20260906010742 84 223 0.0 0.0 0.00 0.00 0.00 66 1013.2
20260906010238 84 223 0.0 0.0 0.00 0.00 0.00 66 1013.0
20260906005733 84 223 0.0 0.0 0.00 0.00 0.00 69 1013.2
20260906005232 84 223 0.0 0.0 0.00 0.00 0.00 69 1013.2
20260906004731 85 223 0.0 0.0 0.00 0.00 0.00 69 1013.1
20260906004227 85 223 0.0 0.0 0.00 0.00 0.00 65 1013.1
20260906003722 86 223 0.0 0.0 0.00 0.00 0.00 63 1012.9
20260906003217 86 223 0.0 0.0 0.00 0.00 0.00 61 1013.2
20260906002717 87 223 0.0 0.0 0.00 0.00 0.00 65 1013.1
20260906002212 87 223 0.0 0.0 0.00 0.00 0.00 60 1013.3
20260906001707 88 223 0.0 0.0 0.00 0.00 0.00 61 1013.1
20260906001207 89 223 0.0 0.0 0.00 0.00 0.00 62 1013.1
20260906000703 89 223 0.0 0.0 0.00 0.00 0.00 58 1013.1
20260906000158 89 223 0.0 0.0 0.00 0.00 0.00 57 1013.2
20260905235657 90 223 0.0 0.0 0.00 0.00 0.00 60 1013.1
20260905235152 90 223 0.0 0.0 0.00 0.00 0.00 57 1013.3
20260905234647 90 223 0.0 0.0 0.00 0.00 0.00 54 1013.2
20260905234143 90 223 0.0 0.0 0.00 0.00 0.00 58 1013.3
20260905233638 91 223 0.0 0.0 0.00 0.00 0.00 57 1013.3
20260905233137 91 223 0.0 0.0 0.00 0.00 0.00 55 1013.3
20260905232632 91 223 0.0 0.0 0.00 0.00 0.00 56 1013.2
20260905232128 91 224 0.0 0.0 0.00 0.00 0.00 53 1013.1
20260905231623 92 223 0.0 0.0 0.00 0.00 0.00 55 1013.2
20260905231120 92 224 0.0 0.0 0.00 0.00 0.00 51 1013.1
20260905230615 92 224 0.0 0.9 0.00 0.00 0.00 49 1013.0
20260905230113 93 224 0.0 0.0 0.00 0.00 0.00 47 1013.1
20260905225612 93 231 0.0 0.0 0.00 0.00 0.00 47 1013.1
20260905225108 94 230 0.0 0.9 0.00 0.00 0.00 46 1013.0
20260905224608 95 47 0.0 0.9 0.00 0.00 0.00 44 1013.0
20260905224107 95 47 0.0 0.9 0.00 0.00 0.00 45 1013.2
20260905223604 95 265 0.0 0.9 0.00 0.00 0.00 44 1013.2
20260905223101 95 283 0.0 0.9 0.00 0.00 0.00 43 1013.1
20260905222600 96 286 0.0 0.9 0.00 0.00 0.00 43 1013.0
20260905222055 96 286 0.0 0.9 0.00 0.00 0.00 41 1013.2
20260905221552 97 287 0.0 0.0 0.00 0.00 0.00 40 1013.1
20260905221048 97 290 0.9 0.9 0.00 0.00 0.00 38 1013.1
20260905220543 98 6 0.9 0.9 0.00 0.00 0.00 39 1013.1
20260905220039 98 73 0.0 1.7 0.00 0.00 0.00 38 1013.2
20260905215538 99 50 0.9 2.6 0.00 0.00 0.00 36 1013.1
20260905215035 99 39 0.9 2.6 0.00 0.00 0.00 35 1013.2
20260905214530 100 174 0.9 0.9 0.00 0.00 0.00 35 1013.1
20260905214025 101 332 0.0 0.9 0.00 0.00 0.00 35 1013.1
20260905213520 101 324 0.0 0.9 0.00 0.00 0.00 35 1013.2
20260905213016 101 268 0.9 0.9 0.00 0.00 0.00 34 1013.3
20260905212511 100 348 0.0 1.7 0.00 0.00 0.00 36 1013.4
20260905212010 101 240 1.7 1.7 0.00 0.00 0.00 34 1013.2
20260905211506 102 279 0.9 1.7 0.00 0.00 0.00 36 1013.1
20260905211001 101 87 0.0 0.0 0.00 0.00 0.00 37 1013.2
20260905210457 100 29 0.0 1.7 0.00 0.00 0.00 36 1013.3
20260905205956 100 278 0.9 1.7 0.00 0.00 0.00 36 1013.3
20260905205451 100 257 1.7 2.6 0.00 0.00 0.00 37 1013.4
20260905204949 99 280 0.0 0.0 0.00 0.00 0.00 38 1013.4
20260905204445 99 280 0.0 3.5 0.00 0.00 0.00 38 1013.4
20260905203944 98 283 0.0 1.7 0.00 0.00 0.00 39 1013.6
20260905203440 99 254 0.0 1.7 0.00 0.00 0.00 40 1013.7
20260905202936 99 273 0.9 0.9 0.00 0.00 0.00 37 1013.7
20260905202431 98 304 0.0 1.7 0.00 0.00 0.00 38 1014.2
20260905201926 98 43 0.0 0.9 0.00 0.00 0.00 41 1014.1
20260905201421 98 247 1.7 2.6 0.00 0.00 0.00 37 1013.9
20260905200921 98 74 0.9 0.9 0.00 0.00 0.00 38 1014.2
20260905200417 99 66 1.7 2.6 0.00 0.00 0.00 37 1014.2
20260905195915 98 51 0.9 0.9 0.00 0.00 0.00 37 1014.1
20260905195410 98 34 1.7 2.6 0.00 0.00 0.00 38 1014.4
20260905194906 96 30 0.0 2.6 0.00 0.00 0.00 40 1014.3
20260905194406 97 348 0.0 0.9 0.00 0.00 0.00 45 1014.3
20260905193906 97 48 0.0 2.6 0.00 0.00 0.00 37 1014.3
20260905193400 97 74 0.0 0.0 0.00 0.00 0.00 40 1014.4
20260905192856 97 73 0.0 0.9 0.00 0.00 0.00 38 1014.6
20260905192351 98 136 0.9 2.6 0.00 0.00 0.00 36 1014.5
20260905191851 98 5 0.0 2.6 0.00 0.00 0.00 40 1014.7
20260905191350 98 49 0.9 1.7 0.00 0.00 0.00 38 1014.6
20260905190849 98 26 0.0 1.7 0.00 0.00 0.00 40 1014.7
20260905190348 97 31 0.0 1.7 0.00 0.00 0.00 40 1014.8
20260905185847 96 72 0.9 1.7 0.00 0.00 0.00 40 1014.8
20260905185343 93 105 0.0 0.9 0.00 0.00 0.00 45 1014.7
20260905184841 92 175 0.9 1.7 0.00 0.00 0.00 47 1015.0
20260905184341 92 252 0.0 0.9 0.00 0.00 0.00 54 1015.0
20260905183839 92 37 0.0 0.0 0.00 0.00 0.00 53 1015.1
20260905183336 92 37 0.0 0.9 0.00 0.00 0.00 52 1015.2
20260905182836 92 37 0.0 0.0 0.00 0.00 0.00 49 1015.2
20260905182335 93 37 0.0 0.9 0.00 0.00 0.00 52 1015.2
20260905181831 93 37 0.0 0.0 0.00 0.00 0.00 49 1015.2
20260905181330 94 37 0.0 0.0 0.00 0.00 0.00 47 1015.3
20260905180829 94 37 0.0 0.0 0.00 0.00 0.00 51 1015.4
20260905180326 95 37 0.0 0.9 0.00 0.00 0.00 40 1015.3
20260905175820 96 26 0.0 0.9 0.00 0.00 0.00 42 1015.3
20260905175320 97 41 0.0 0.9 0.00 0.00 0.00 43 1015.3
20260905174815 97 50 0.9 1.7 0.00 0.00 0.00 38 1015.5
20260905174311 98 83 0.0 1.7 0.00 0.00 0.00 38 1015.4
20260905173807 99 279 2.6 2.6 0.00 0.00 0.00 41 1015.6
20260905173302 99 239 0.0 0.9 0.00 0.00 0.00 41 1015.8
20260905172802 98 51 0.9 0.9 0.00 0.00 0.00 38 1015.6
20260905172301 98 47 0.9 1.7 0.00 0.00 0.00 40 1015.5
20260905171757 98 65 0.9 1.7 0.00 0.00 0.00 40 1015.7
20260905171253 97 65 0.9 1.7 0.00 0.00 0.00 44 1015.9
20260905170749 98 286 1.7 1.7 0.00 0.00 0.00 40 1016.1
20260905170245 98 286 0.9 1.7 0.00 0.00 0.00 43 1016.0
20260905165744 98 8 0.0 0.9 0.00 0.00 0.00 42 1016.2
20260905165240 97 310 0.9 1.7 0.00 0.00 0.00 43 1016.3
20260905164740 97 276 0.0 0.9 0.00 0.00 0.00 46 1016.1
20260905164234 97 65 0.9 0.9 0.00 0.00 0.00 45 1016.2
20260905163730 98 291 0.9 1.7 0.00 0.00 0.00 45 1016.1
20260905163226 97 243 0.0 0.9 0.00 0.00 0.00 45 1016.2
20260905162722 96 310 0.0 0.9 0.00 0.00 0.00 47 1016.4
20260905162222 95 311 0.0 0.9 0.00 0.00 0.00 51 1016.2
20260905161717 95 299 1.7 1.7 0.00 0.00 0.00 49 1016.5
20260905161215 94 298 0.0 0.9 0.00 0.00 0.00 51 1016.2
20260905160714 94 308 0.9 1.7 0.00 0.00 0.00 50 1016.3
20260905160214 93 322 0.0 0.9 0.00 0.00 0.00 53 1016.4
20260905155708 93 55 0.0 0.0 0.00 0.00 0.00 54 1016.3